Camilo Daza International Airport
SKCC : rendu visible

Aérodrome :











RETROUVEZ-NOUS SUR...

 
LOGIN :

S'inscrire | Disclaimer

   EN    FR    IT 

 









Légende :    VFR   VFR Marginal   IFR   IFR Intensif   IFR Très Intensif
Visi : 
Plafond : 
>= 8 km
>= 3000ft
5 à 8 km
1000 à 3000 ft
1500m à 5 km
500 à 1000 ft
800 à 1500m
200 à 500 ft
< 800m
< 200 ft
Symboles :   Orages  Brouillard  Fortes neiges  Fortes précipitations  Vent > 20 kt






- Altitude de l'aérodrome : 1096 ft
- Code IATA : CUC


SKCC - Camilo Daza International

DERNIER METAR :
  • 041900Z 01008KT 340V050 9999 SCT020 28/22 Q1013 RMK A2992

METARs EXPIRÉS :
  • 041800Z 01008KT 330V040 9999 SCT020 28/22 Q1013 RMK A2994

TAF TAF SKCC
Valide du 04 à 18h jusqu'au 05 à 18h UTC


041630Z 0418/0518 02012KT 9999 SCT020
TEMPO 04/19/0423 DZRA
BECMG 0502/0504 VRB03KT TX30/0318Z TN22/0510Z
FIR SKED / Amérique du Sud



MET'MAP, la Météo Aéronautique d'un coup d'oeil ! - Copyright ORBIFLY Décembre 2007 - Disclaimer

ORBIFLY MET'MAP TEAM :

Programmation & Développement : Alexandra Zaïnal
Sur une idée originale de : Baudouin d'Aumeries
Assistance à la programmation : Marc-Olivier Méhu
Soutien technique & logistique : Manuel Goepfert

Contact : metmap@orbifly.com




SOURCES & CREDITS :

   NOAA       Earth
Advisory